Newburgh, NY

9:16 PM EST on November 13, 2019 (GMT -0500)
Stewart International

Weather History for KSWF - October, 2019

Change the Weather History Date:

Sunday, October 20, 2019

  Actual Average Record
Temperature  
Mean Temperature 44 °F -  
Max Temperature 53 °F 57 °F 73 °F (2017)
Min Temperature 35 °F 38 °F 17 °F (1974)
Degree Days  
Heating Degree Days 21    
Moisture  
Dew Point 46 °F    
Average Humidity 97    
Maximum Humidity 100    
Minimum Humidity 82    
Precipitation  
Precipitation 0.00 in - - ()
Sea Level Pressure  
Sea Level Pressure 30.04 in    
Wind  
Wind Speed 2 mph (ENE)    
Max Wind Speed 6 mph    
Max Gust Speed -    
Visibility 5 miles    
Events Fog , Rain    
Averages and records for this station are not official NWS values.
T = Trace of Precipitation, MM = Missing Value Source: NWS Daily Summary

Daily Weather History Graph

Daily Weather History Graph

Search for Another Location

Airport or City:

Astronomy

Oct. 20, 2019 Rise Set
Actual Time 7:13 AM EDT 6:08 PM EDT
Civil Twilight 6:45 AM EDT 6:36 PM EDT
Nautical Twilight 6:13 AM EDT 7:08 PM EDT
Astronomical Twilight 5:41 AM EDT 7:40 PM EDT
Moon 11:11 PM EDT (10/20) 1:42 PM EDT (10/20)
Length of Visible Light 11h 50m
Length of Day
10h 54m
Waning Gibbous, 59% of the Moon is Illuminated
Oct 20
Waning Gibbous
Oct 21
Last Quarter
Oct 27
New
Nov 4
First Quarter
Nov 12
Full

Hourly Weather History & Observations

Time (EDT) Temp. Windchill Dew Point Humidity Pressure Visibility Wind Dir Wind Speed Gust Speed Precip Events Conditions
12:45 AM 41.0 °F - 39.2 °F 93% 30.04 in 10.0 mi Calm Calm - N/A   Clear
1:45 AM 41.0 °F - 39.2 °F 93% 30.04 in 10.0 mi Calm Calm - N/A   Clear
2:45 AM 41.0 °F - 39.2 °F 93% 30.05 in 10.0 mi Calm Calm - N/A   Clear
3:45 AM 41.0 °F - 39.2 °F 93% 30.05 in 10.0 mi Calm Calm - N/A   Clear
4:45 AM 35.6 °F - 35.6 °F 100% 30.03 in 2.0 mi Calm Calm - N/A   Mostly Cloudy
5:45 AM 37.4 °F - 37.4 °F 100% 30.03 in 10.0 mi Calm Calm - N/A   Clear
6:45 AM 39.2 °F 35.9 °F 39.2 °F 100% 30.02 in 0.2 mi ESE 4.6 mph - N/A Fog Fog
7:45 AM 41.0 °F 38.0 °F 41.0 °F 100% 30.02 in 0.2 mi Variable 4.6 mph - N/A Fog Fog
8:00 AM 39.2 °F 35.9 °F 39.2 °F 100% 30.05 in 0.5 mi Variable 4.6 mph - N/A Fog Fog
8:45 AM 41.0 °F 38.0 °F 41.0 °F 100% 30.06 in 1.2 mi Variable 4.6 mph - N/A   Mostly Cloudy
9:45 AM 44.6 °F 42.2 °F 44.6 °F 100% 30.07 in 5.0 mi Variable 4.6 mph - N/A   Mostly Cloudy
10:45 AM 50.0 °F - 48.2 °F 94% 30.06 in 10.0 mi Variable 4.6 mph - N/A   Mostly Cloudy
11:45 AM 51.8 °F - 48.2 °F 88% 30.06 in 10.0 mi Calm Calm - N/A   Mostly Cloudy
12:45 PM 53.6 °F - 48.2 °F 82% 30.06 in 6.0 mi Calm Calm - N/A Rain Light Rain
1:45 PM 53.6 °F - 50.0 °F 88% 30.05 in 6.0 mi Calm Calm - N/A Rain Light Rain
2:45 PM 50.0 °F - 50.0 °F 100% 30.04 in 4.0 mi Calm Calm - N/A Rain Light Rain
3:45 PM 51.8 °F - 51.8 °F 100% 30.03 in 2.5 mi Calm Calm - N/A Rain Light Rain
4:05 PM 51.8 °F - 51.8 °F 100% 30.03 in 2.0 mi Calm Calm - N/A Rain Light Rain
4:45 PM 51.8 °F - 51.8 °F 100% 30.03 in 2.0 mi Calm Calm - N/A Rain Light Rain
5:45 PM 51.8 °F - 51.8 °F 100% 30.02 in 3.0 mi East 4.6 mph - N/A Rain Light Rain
6:45 PM 51.8 °F - 51.8 °F 100% 30.01 in 4.0 mi East 4.6 mph - N/A Rain Light Rain
7:45 PM 50.0 °F - 50.0 °F 100% 30.02 in 4.0 mi East 4.6 mph - N/A Rain Light Rain
8:45 PM 51.8 °F - 51.8 °F 100% 30.02 in 4.0 mi ENE 4.6 mph - N/A Rain Light Rain
9:45 PM 51.8 °F - 51.8 °F 100% 30.02 in 4.0 mi NE 5.8 mph - N/A Rain Light Rain
10:45 PM 51.8 °F - 51.8 °F 100% 30.02 in 4.0 mi ENE 5.8 mph - N/A   Mostly Cloudy
11:45 PM 50.0 °F - 50.0 °F 100% 30.02 in 10.0 mi East 5.8 mph - N/A   Mostly Cloudy